GFO

Satellite information

Favourite Embed

Satellite Type and Status

PAYLOADIN ORBIT

Key statistics

Satellite GFO at a glance.

Uptime

10114

Days in orbit

Revolutions

≈ 15.5

Per day

Orbit

SSO

Sun Synchronous Orbit

Inclination

108.0

Latest

Satellite identification and parameters

Extended collection of information and parameters for GFO.

Object identification

Identified? True

Debris? False

Object name: GFO

International designator: 1998-007A

Object number (NORAD): 25157

Object ID (CCSDS): 25157

Country: UNITED STATES OF AMERICA (US)

Current information (Y/N): Y

RCS size: LARGE

Orbital parameters

Period: 92.946 minutes

Inclination: 108.0257 deg

SMA: 6796.968 km

Apoapsis: 465.364 km

Periapsis: 372.301 km

RAAN: 275.3909 deg

Eccentricy: 0.00684589

Argument of periapsis: 122.6558 deg

Mean anomaly: 238.127 deg

Mean motion: 15.49280189 rev/day

Mean motion (dot): 0.00053082 rev/day2

B* drag term: 0.00088045642 1/REarth

Two-line elements (TLE)

Creation date: Oct. 20, 2025, 2:10 a.m.

Reference frame: TEME

Reference center: EARTH

Epoch: Oct. 19, 2025, 11:37 a.m. UTC

TLE line 0: 0 GFO

TLE line 1: 1 25157U 98007A 25292.48443934 .00053082 00000-0 88046-3 0 9990

TLE line 2: 2 25157 108.0257 275.3909 0068459 122.6558 238.1270 15.49280189488876

Live tracking on map

Real-time ground track for satellite GFO.

In-orbit conjunctions

A list of the most updated potential collisions computed for object GFO.

Target Orbit TCA Probability of collision Miss distance Type
CHOLLIMA-1 R/B SSO 2025-04-30 19:06:09 0.0005046756 686.0 (m) ROCKET BODY

Associated space launch

The US Navy GFO (Geosat Follow On), is a 369 kg minisatellite based on the Techstar platform to carry on the mission of Geosat. It was launched on the 10th February 1998 on a Taurus-2210 from VAFB alongside two Orbcomm satellites, into a 789 × 881 km (779 × 790 km planned) 108 degree inclined orbit.

GFO was lifted into orbit during the mission ‘Taurus 2210 | GFO’, on board a Minotaur-C 2210 space rocket.

The launch took place on Feb. 10, 1998, 1:20 p.m. from Space Launch Complex 576E.

For more information about the launch, click the button.

Launch to space Taurus 2210 | GFO
Taurus 2210 | GFO

Agency: N/A

Status: Launch Successful

Launch date: Feb. 10, 1998, 1:20 p.m. UTC

Rocket: Minotaur-C 2210

Launch pad: Space Launch Complex 576E

Location: Vandenberg SFB, CA, USA

...

Latest news about this satellite

There are no fresh news available about this satellite. Check back as we update our databases every day.


Newsletter sign-up

Weekly statistics, charts and insights to help you stay on top of the space industry.